Year,Month,Day,Hour,Minute,Value (Times are PST for windspeed in km/hr)
2013,03,20,00,00,20.20
2013,03,20,00,01,18.50
2013,03,20,00,02,13.60
2013,03,20,00,03,18.00
2013,03,20,00,04,17.70
2013,03,20,00,05,16.40
2013,03,20,00,06,15.50
2013,03,20,00,07,19.10
2013,03,20,00,08,15.60
2013,03,20,00,09,14.80
2013,03,20,00,10,16.70
2013,03,20,00,11,10.50
2013,03,20,00,12,10.70
2013,03,20,00,13,14.60
2013,03,20,00,14,17.90
2013,03,20,00,15,18.30
2013,03,20,00,16,19.40
2013,03,20,00,17,7.20
2013,03,20,00,18,15.00
2013,03,20,00,19,16.30
2013,03,20,00,20,16.60
2013,03,20,00,21,20.00
2013,03,20,00,22,14.60
2013,03,20,00,23,14.70
2013,03,20,00,24,12.10
2013,03,20,00,25,19.50
2013,03,20,00,26,18.20
2013,03,20,00,27,16.10
2013,03,20,00,28,18.30
2013,03,20,00,29,13.30
2013,03,20,00,30,7.20
2013,03,20,00,31,8.80
2013,03,20,00,32,15.90
2013,03,20,00,33,14.80
2013,03,20,00,34,10.70
2013,03,20,00,35,14.30
2013,03,20,00,36,12.90
2013,03,20,00,37,14.60
2013,03,20,00,38,16.50
2013,03,20,00,39,13.40
2013,03,20,00,40,10.60
2013,03,20,00,41,14.50
2013,03,20,00,42,17.30
2013,03,20,00,43,19.90
2013,03,20,00,44,18.00
2013,03,20,00,45,13.40
2013,03,20,00,46,11.70
2013,03,20,00,47,11.90
2013,03,20,00,48,8.80
2013,03,20,00,49,11.80
2013,03,20,00,50,12.70
2013,03,20,00,51,8.70
2013,03,20,00,52,11.30
2013,03,20,00,53,13.90
2013,03,20,00,54,14.20
2013,03,20,00,55,16.00
2013,03,20,00,56,11.80
2013,03,20,00,57,15.40
2013,03,20,00,58,14.60
2013,03,20,00,59,12.80
2013,03,20,01,00,14.70
2013,03,20,01,01,12.00
2013,03,20,01,02,14.40
2013,03,20,01,03,19.00
2013,03,20,01,04,18.40
2013,03,20,01,05,19.00
2013,03,20,01,06,21.10
2013,03,20,01,07,9.40
2013,03,20,01,08,16.10
2013,03,20,01,09,19.80
2013,03,20,01,10,13.70
2013,03,20,01,11,16.00
2013,03,20,01,12,17.30
2013,03,20,01,13,19.60
2013,03,20,01,14,19.00
2013,03,20,01,15,17.10
2013,03,20,01,16,10.20
2013,03,20,01,17,12.70
2013,03,20,01,18,15.70
2013,03,20,01,19,12.00
2013,03,20,01,20,13.90
2013,03,20,01,21,17.10
2013,03,20,01,22,16.20
2013,03,20,01,23,16.00
2013,03,20,01,24,18.00
2013,03,20,01,25,15.30
2013,03,20,01,26,12.10
2013,03,20,01,27,20.90
2013,03,20,01,28,17.30
2013,03,20,01,29,15.80
2013,03,20,01,30,22.30
2013,03,20,01,31,21.20
2013,03,20,01,32,17.20
2013,03,20,01,33,18.40
2013,03,20,01,34,19.60
2013,03,20,01,35,14.00
2013,03,20,01,36,16.20
2013,03,20,01,37,9.80
2013,03,20,01,38,12.30
2013,03,20,01,39,20.00
2013,03,20,01,40,23.20
2013,03,20,01,41,20.40
2013,03,20,01,42,20.00
2013,03,20,01,43,19.20
2013,03,20,01,44,9.30
2013,03,20,01,45,11.70
2013,03,20,01,46,13.80
2013,03,20,01,47,19.00
2013,03,20,01,48,24.60
2013,03,20,01,49,24.30
2013,03,20,01,50,19.60
2013,03,20,01,51,19.50
2013,03,20,01,52,21.20
2013,03,20,01,53,15.90
2013,03,20,01,54,15.00
2013,03,20,01,55,16.60
2013,03,20,01,56,21.30
2013,03,20,01,57,9.30
2013,03,20,01,58,27.40
2013,03,20,01,59,12.80
2013,03,20,02,00,18.60
2013,03,20,02,01,15.70
2013,03,20,02,02,24.10
2013,03,20,02,03,22.90
2013,03,20,02,04,17.90
2013,03,20,02,05,13.00
2013,03,20,02,06,16.60
2013,03,20,02,07,23.90
2013,03,20,02,08,18.80
2013,03,20,02,09,20.90
2013,03,20,02,10,20.80
2013,03,20,02,11,18.70
2013,03,20,02,12,19.90
2013,03,20,02,13,8.30
2013,03,20,02,14,17.60
2013,03,20,02,15,18.70
2013,03,20,02,16,11.80
2013,03,20,02,17,21.10
2013,03,20,02,18,14.80
2013,03,20,02,19,22.70
2013,03,20,02,20,14.10
2013,03,20,02,21,21.70
2013,03,20,02,22,14.90
2013,03,20,02,23,21.60
2013,03,20,02,24,15.60
2013,03,20,02,25,17.70
2013,03,20,02,26,21.20
2013,03,20,02,27,19.30
2013,03,20,02,28,19.00
2013,03,20,02,29,11.30
2013,03,20,02,30,15.50
2013,03,20,02,31,18.80
2013,03,20,02,32,15.40
2013,03,20,02,33,17.30
2013,03,20,02,34,17.60
2013,03,20,02,35,13.40
2013,03,20,02,36,12.10
2013,03,20,02,37,17.10
2013,03,20,02,38,20.10
2013,03,20,02,39,21.20
2013,03,20,02,40,22.10
2013,03,20,02,41,18.00
2013,03,20,02,42,13.90
2013,03,20,02,43,18.00
2013,03,20,02,44,21.90
2013,03,20,02,45,20.50
2013,03,20,02,46,23.60
2013,03,20,02,47,13.00
2013,03,20,02,48,16.20
2013,03,20,02,49,22.40
2013,03,20,02,50,21.70
2013,03,20,02,51,17.50
2013,03,20,02,52,15.50
2013,03,20,02,53,15.70
2013,03,20,02,54,25.20
2013,03,20,02,55,15.00
2013,03,20,02,56,18.00
2013,03,20,02,57,12.20
2013,03,20,02,58,13.90
2013,03,20,02,59,9.50
2013,03,20,03,00,13.40
2013,03,20,03,01,9.30
2013,03,20,03,02,11.30
2013,03,20,03,03,10.70
2013,03,20,03,06,11.40
2013,03,20,03,07,5.60
2013,03,20,03,08,20.80
2013,03,20,03,09,19.60
2013,03,20,03,10,8.90
2013,03,20,03,11,9.20
2013,03,20,03,12,14.10
2013,03,20,03,13,15.10
2013,03,20,03,14,13.90
2013,03,20,03,15,21.20
2013,03,20,03,16,16.30
2013,03,20,03,17,19.20
2013,03,20,03,18,11.80
2013,03,20,03,19,19.00
2013,03,20,03,20,18.00
2013,03,20,03,21,17.60
2013,03,20,03,22,14.20
2013,03,20,03,23,14.50
2013,03,20,03,24,10.00
2013,03,20,03,25,12.90
2013,03,20,03,26,10.80
2013,03,20,03,27,13.00
2013,03,20,03,28,19.40
2013,03,20,03,29,11.90
2013,03,20,03,30,11.60
2013,03,20,03,31,9.20
2013,03,20,03,32,18.10
2013,03,20,03,33,12.50
2013,03,20,03,34,18.20
2013,03,20,03,35,21.50
2013,03,20,03,36,18.40
2013,03,20,03,37,13.80
2013,03,20,03,38,17.10
2013,03,20,03,39,19.50
2013,03,20,03,40,10.60
2013,03,20,03,41,14.60
2013,03,20,03,42,12.90
2013,03,20,03,43,14.30
2013,03,20,03,44,20.20
2013,03,20,03,45,14.50
2013,03,20,03,46,15.40
2013,03,20,03,47,15.60
2013,03,20,03,48,18.70
2013,03,20,03,49,14.70
2013,03,20,03,50,14.40
2013,03,20,03,51,12.40
2013,03,20,03,52,7.10
2013,03,20,03,53,15.30
2013,03,20,03,54,11.40
2013,03,20,03,55,7.90
2013,03,20,03,56,8.90
2013,03,20,03,57,13.80
2013,03,20,03,58,17.40
2013,03,20,03,59,9.50
2013,03,20,04,00,8.60
2013,03,20,04,01,17.80
2013,03,20,04,02,11.90
2013,03,20,04,03,16.90
2013,03,20,04,04,17.60
2013,03,20,04,05,9.60
2013,03,20,04,06,7.50
2013,03,20,04,07,8.80
2013,03,20,04,08,19.70
2013,03,20,04,09,12.70
2013,03,20,04,10,20.00
2013,03,20,04,11,11.40
2013,03,20,04,12,6.30
2013,03,20,04,13,13.40
2013,03,20,04,14,13.60
2013,03,20,04,15,6.30
2013,03,20,04,16,13.80
2013,03,20,04,17,10.60
2013,03,20,04,18,15.20
2013,03,20,04,19,16.70
2013,03,20,04,20,19.00
2013,03,20,04,21,9.00
2013,03,20,04,22,8.90
2013,03,20,04,23,15.00
2013,03,20,04,24,15.60
2013,03,20,04,25,8.80
2013,03,20,04,26,6.80
2013,03,20,04,27,14.80
2013,03,20,04,28,18.30
2013,03,20,04,29,12.90
2013,03,20,04,30,19.80
2013,03,20,04,31,13.00
2013,03,20,04,32,20.00
2013,03,20,04,33,19.60
2013,03,20,04,34,19.20
2013,03,20,04,35,14.10
2013,03,20,04,36,17.50
2013,03,20,04,37,20.80
2013,03,20,04,38,9.10
2013,03,20,04,39,10.50
2013,03,20,04,40,16.90
2013,03,20,04,41,16.30
2013,03,20,04,42,14.60
2013,03,20,04,43,15.90
2013,03,20,04,44,20.10
2013,03,20,04,45,14.20
2013,03,20,04,46,17.60
2013,03,20,04,47,18.30
2013,03,20,04,48,12.30
2013,03,20,04,49,17.70
2013,03,20,04,50,14.90
2013,03,20,04,51,15.90
2013,03,20,04,52,16.20
2013,03,20,04,53,20.70
2013,03,20,04,54,12.90
2013,03,20,04,55,12.50
2013,03,20,04,56,12.80
2013,03,20,04,57,10.70
2013,03,20,04,58,20.50
2013,03,20,04,59,8.80
2013,03,20,05,00,17.70
2013,03,20,05,01,11.30
2013,03,20,05,02,10.30
2013,03,20,05,03,16.70
2013,03,20,05,04,14.70
2013,03,20,05,05,17.80
2013,03,20,05,06,12.30
2013,03,20,05,07,7.00
2013,03,20,05,08,8.00
2013,03,20,05,09,10.10
2013,03,20,05,10,7.40
2013,03,20,05,11,15.60
2013,03,20,05,12,18.00
2013,03,20,05,13,16.70
2013,03,20,05,14,15.10
2013,03,20,05,15,16.70
2013,03,20,05,16,14.40
2013,03,20,05,17,16.50
2013,03,20,05,18,14.90
2013,03,20,05,19,17.50
2013,03,20,05,20,17.90
2013,03,20,05,21,21.20
2013,03,20,05,22,13.30
2013,03,20,05,23,19.10
2013,03,20,05,24,11.70
2013,03,20,05,25,9.20
2013,03,20,05,26,13.70
2013,03,20,05,27,19.50
2013,03,20,05,28,17.30
2013,03,20,05,29,25.70
2013,03,20,05,30,24.70
2013,03,20,05,31,17.60
2013,03,20,05,32,15.10
2013,03,20,05,33,12.90
2013,03,20,05,34,11.00
2013,03,20,05,35,15.80
2013,03,20,05,36,12.90
2013,03,20,05,37,12.60
2013,03,20,05,38,15.20
2013,03,20,05,39,16.10
2013,03,20,05,40,13.30
2013,03,20,05,41,15.70
2013,03,20,05,42,16.20
2013,03,20,05,43,22.50
2013,03,20,05,44,20.00
2013,03,20,05,45,15.50
2013,03,20,05,46,18.90
2013,03,20,05,47,16.30
2013,03,20,05,48,18.10
2013,03,20,05,49,17.50
2013,03,20,05,50,16.60
2013,03,20,05,51,16.70
2013,03,20,05,52,19.20
2013,03,20,05,53,14.30
2013,03,20,05,54,14.80
2013,03,20,05,55,13.40
2013,03,20,05,56,17.90
2013,03,20,05,57,16.10
2013,03,20,05,58,13.90
2013,03,20,05,59,13.00
2013,03,20,06,00,13.40
2013,03,20,06,01,8.90
2013,03,20,06,02,13.50
2013,03,20,06,03,9.70
2013,03,20,06,04,15.80
2013,03,20,06,05,8.90
2013,03,20,06,06,11.70
2013,03,20,06,07,13.60
2013,03,20,06,08,14.50
2013,03,20,06,09,21.40
2013,03,20,06,10,18.10
2013,03,20,06,11,12.10
2013,03,20,06,12,13.70
2013,03,20,06,13,12.20
2013,03,20,06,14,8.90
2013,03,20,06,15,12.40
2013,03,20,06,16,10.20
2013,03,20,06,17,9.40
2013,03,20,06,18,10.90
2013,03,20,06,19,8.50
2013,03,20,06,20,14.20
2013,03,20,06,21,6.60
2013,03,20,06,22,6.90
2013,03,20,06,23,9.80
2013,03,20,06,24,11.30
2013,03,20,06,25,8.30
2013,03,20,06,26,11.30
2013,03,20,06,27,14.90
2013,03,20,06,28,15.00
2013,03,20,06,29,9.80
2013,03,20,06,30,10.10
2013,03,20,06,31,12.10
2013,03,20,06,32,9.70
2013,03,20,06,33,9.40
2013,03,20,06,34,10.30
2013,03,20,06,35,11.20
2013,03,20,06,36,5.50
2013,03,20,06,37,12.80
2013,03,20,06,38,16.60
2013,03,20,06,39,13.50
2013,03,20,06,40,9.40
2013,03,20,06,41,7.50
2013,03,20,06,42,10.50
2013,03,20,06,43,7.20
2013,03,20,06,44,9.30
2013,03,20,06,45,10.10
2013,03,20,06,46,17.60
2013,03,20,06,47,14.80
2013,03,20,06,48,15.20
2013,03,20,06,49,14.50
2013,03,20,06,50,9.50
2013,03,20,06,51,15.30
2013,03,20,06,52,14.90
2013,03,20,06,53,15.90
2013,03,20,06,54,15.00
2013,03,20,06,55,16.00
2013,03,20,06,56,17.50
2013,03,20,06,57,14.20
2013,03,20,06,58,20.20
2013,03,20,06,59,11.70
2013,03,20,07,00,10.00
2013,03,20,07,01,13.50
2013,03,20,07,02,13.70
2013,03,20,07,03,13.40
2013,03,20,07,04,13.80
2013,03,20,07,05,14.30
2013,03,20,07,06,13.00
2013,03,20,07,07,9.90
2013,03,20,07,08,14.10
2013,03,20,07,09,7.60
2013,03,20,07,10,8.70
2013,03,20,07,11,4.30
2013,03,20,07,12,12.20
2013,03,20,07,13,13.90
2013,03,20,07,14,12.40
2013,03,20,07,15,8.00
2013,03,20,07,16,13.30
2013,03,20,07,17,7.40
2013,03,20,07,18,13.40
2013,03,20,07,19,8.60
2013,03,20,07,20,8.50
2013,03,20,07,21,9.20
2013,03,20,07,22,9.20
2013,03,20,07,23,13.80
2013,03,20,07,24,13.40
2013,03,20,07,25,6.20
2013,03,20,07,26,13.20
2013,03,20,07,27,15.90
2013,03,20,07,28,8.70
2013,03,20,07,29,6.50
2013,03,20,07,30,10.30
2013,03,20,07,31,15.10
2013,03,20,07,32,11.40
2013,03,20,07,33,11.20
2013,03,20,07,34,13.80
2013,03,20,07,35,11.70
2013,03,20,07,36,13.10
2013,03,20,07,37,9.50
2013,03,20,07,38,7.10
2013,03,20,07,39,9.30
2013,03,20,07,40,8.00
2013,03,20,07,41,8.30
2013,03,20,07,42,9.90
2013,03,20,07,43,14.40
2013,03,20,07,44,7.80
2013,03,20,07,45,11.60
2013,03,20,07,46,11.50
2013,03,20,07,47,8.50
2013,03,20,07,48,9.50
2013,03,20,07,49,15.60
2013,03,20,07,50,9.00
2013,03,20,07,51,11.50
2013,03,20,07,52,12.50
2013,03,20,07,53,12.40
2013,03,20,07,54,10.60
2013,03,20,07,55,9.30
2013,03,20,07,56,8.10
2013,03,20,07,57,10.20
2013,03,20,07,58,13.50
2013,03,20,07,59,9.70
2013,03,20,08,00,9.90
2013,03,20,08,01,9.70
2013,03,20,08,02,5.80
2013,03,20,08,03,5.20
2013,03,20,08,04,6.50
2013,03,20,08,05,7.00
2013,03,20,08,06,9.10
2013,03,20,08,07,6.60
2013,03,20,08,08,3.60
2013,03,20,08,09,8.00
2013,03,20,08,10,9.20
2013,03,20,08,11,7.70
2013,03,20,08,12,7.30
2013,03,20,08,13,11.20
2013,03,20,08,14,7.20
2013,03,20,08,15,2.30
2013,03,20,08,16,3.20
2013,03,20,08,17,6.90
2013,03,20,08,18,8.30
2013,03,20,08,19,7.70
2013,03,20,08,20,5.40
2013,03,20,08,21,7.60
2013,03,20,08,22,12.60
2013,03,20,08,23,6.40
2013,03,20,08,24,6.10
2013,03,20,08,25,12.70
2013,03,20,08,26,8.00
2013,03,20,08,27,8.30
2013,03,20,08,28,5.40
2013,03,20,08,29,9.20
2013,03,20,08,30,10.40
2013,03,20,08,31,6.60
2013,03,20,08,32,9.30
2013,03,20,08,33,7.70
2013,03,20,08,34,3.10
2013,03,20,08,35,8.50
2013,03,20,08,36,6.00
2013,03,20,08,37,8.50
2013,03,20,08,38,7.20
2013,03,20,08,39,12.20
2013,03,20,08,40,7.60
2013,03,20,08,41,7.80
2013,03,20,08,42,2.20
2013,03,20,08,43,5.50
2013,03,20,08,44,8.30
2013,03,20,08,45,8.70
2013,03,20,08,46,5.20
2013,03,20,08,47,6.30
2013,03,20,08,48,5.70
2013,03,20,08,49,4.00
2013,03,20,08,50,6.90
2013,03,20,08,51,7.70
2013,03,20,08,52,7.40
2013,03,20,08,53,6.00
2013,03,20,08,54,2.40
2013,03,20,08,55,0.00
2013,03,20,08,56,0.20
2013,03,20,08,57,3.50
2013,03,20,08,58,0.00
2013,03,20,08,59,6.00
2013,03,20,09,00,1.00
2013,03,20,09,01,3.90
2013,03,20,09,02,1.00
2013,03,20,09,03,1.70
2013,03,20,09,04,3.10
2013,03,20,09,05,0.00
2013,03,20,09,06,0.20
2013,03,20,09,07,2.20
2013,03,20,09,08,0.80
2013,03,20,09,09,0.20
2013,03,20,09,10,0.20
2013,03,20,09,11,4.50
2013,03,20,09,12,5.20
2013,03,20,09,13,6.40
2013,03,20,09,14,10.60
2013,03,20,09,15,4.90
2013,03,20,09,16,8.70
2013,03,20,09,17,9.30
2013,03,20,09,18,6.60
2013,03,20,09,19,4.60
2013,03,20,09,20,3.50
2013,03,20,09,21,10.90
2013,03,20,09,22,8.00
2013,03,20,09,23,4.10
2013,03,20,09,24,3.40
2013,03,20,09,25,13.10
2013,03,20,09,26,15.50
2013,03,20,09,27,15.40
2013,03,20,09,28,15.10
2013,03,20,09,29,7.20
2013,03,20,09,30,9.10
2013,03,20,09,31,6.80
2013,03,20,09,32,7.70
2013,03,20,09,33,11.20
2013,03,20,09,34,8.90
2013,03,20,09,35,20.00
2013,03,20,09,36,17.50
2013,03,20,09,37,11.40
2013,03,20,09,38,16.60
2013,03,20,09,39,16.00
2013,03,20,09,40,14.70
2013,03,20,09,41,13.30
2013,03,20,09,42,10.00
2013,03,20,09,43,11.30
2013,03,20,09,44,17.20
2013,03,20,09,45,14.30
2013,03,20,09,46,7.70
2013,03,20,09,47,13.10
2013,03,20,09,48,16.70
2013,03,20,09,49,22.90
2013,03,20,09,50,16.20
2013,03,20,09,51,13.30
2013,03,20,09,52,15.50
2013,03,20,09,53,15.90
2013,03,20,09,54,21.60
2013,03,20,09,55,18.70
2013,03,20,09,56,10.30
2013,03,20,09,57,13.10
2013,03,20,09,58,17.80
2013,03,20,09,59,21.40
2013,03,20,10,00,14.60
2013,03,20,10,01,22.80
2013,03,20,10,02,22.50
2013,03,20,10,03,18.80
2013,03,20,10,04,14.10
2013,03,20,10,05,21.20
2013,03,20,10,06,18.30
2013,03,20,10,07,19.10
2013,03,20,10,08,14.60
2013,03,20,10,09,18.20
2013,03,20,10,10,23.30
2013,03,20,10,11,13.00
2013,03,20,10,12,15.60
2013,03,20,10,13,9.70
2013,03,20,10,14,11.30
2013,03,20,10,15,13.20
2013,03,20,10,16,15.50
2013,03,20,10,17,23.30
2013,03,20,10,18,10.40
2013,03,20,10,19,25.50
2013,03,20,10,20,16.00
2013,03,20,10,21,11.70
2013,03,20,10,22,20.50
2013,03,20,10,23,16.20
2013,03,20,10,24,13.10
2013,03,20,10,25,20.40
2013,03,20,10,26,24.60
2013,03,20,10,27,19.80
2013,03,20,10,28,19.20
2013,03,20,10,29,18.10
2013,03,20,10,30,29.40
2013,03,20,10,31,14.10
2013,03,20,10,32,19.30
2013,03,20,10,33,21.60
2013,03,20,10,34,27.30
2013,03,20,10,35,17.40
2013,03,20,10,36,20.00
2013,03,20,10,37,22.40
2013,03,20,10,38,26.20
2013,03,20,10,39,25.90
2013,03,20,10,40,41.40
2013,03,20,10,41,30.00
2013,03,20,10,42,34.30
2013,03,20,10,43,25.70
2013,03,20,10,44,20.80
2013,03,20,10,45,22.80
2013,03,20,10,46,25.90
2013,03,20,10,47,26.20
2013,03,20,10,48,24.90
2013,03,20,10,49,26.80
2013,03,20,10,50,27.00
2013,03,20,10,51,23.00
2013,03,20,10,52,20.80
2013,03,20,10,53,19.20
2013,03,20,10,54,27.00
2013,03,20,10,55,24.70
2013,03,20,10,56,16.70
2013,03,20,10,57,16.30
2013,03,20,10,58,21.80
2013,03,20,10,59,22.00
2013,03,20,11,00,13.20
2013,03,20,11,01,23.00
2013,03,20,11,02,16.30
2013,03,20,11,03,25.80
2013,03,20,11,04,23.40
2013,03,20,11,05,18.00
2013,03,20,11,06,30.30
2013,03,20,11,07,23.30
2013,03,20,11,08,25.00
2013,03,20,11,09,25.20
2013,03,20,11,10,19.80
2013,03,20,11,11,23.90
2013,03,20,11,12,23.30
2013,03,20,11,13,20.60
2013,03,20,11,14,20.80
2013,03,20,11,15,20.50
2013,03,20,11,16,20.40
2013,03,20,11,17,18.30
2013,03,20,11,18,27.10
2013,03,20,11,19,20.50
2013,03,20,11,20,25.20
2013,03,20,11,21,20.70
2013,03,20,11,22,19.60
2013,03,20,11,23,22.10
2013,03,20,11,24,26.30
2013,03,20,11,25,23.30
2013,03,20,11,26,17.90
2013,03,20,11,27,23.70
2013,03,20,11,28,14.60
2013,03,20,11,29,20.10
2013,03,20,11,30,19.20
2013,03,20,11,31,25.40
2013,03,20,11,32,27.80
2013,03,20,11,33,20.10
2013,03,20,11,34,16.10
2013,03,20,11,35,13.70
2013,03,20,11,36,18.00
2013,03,20,11,37,15.10
2013,03,20,11,38,27.40
2013,03,20,11,39,17.90
2013,03,20,11,40,14.80
2013,03,20,11,41,19.60
2013,03,20,11,42,23.30
2013,03,20,11,43,27.40
2013,03,20,11,44,25.50
2013,03,20,11,45,22.90
2013,03,20,11,46,28.40
2013,03,20,11,47,21.60
2013,03,20,11,48,24.50
2013,03,20,11,49,21.70
2013,03,20,11,50,17.50
2013,03,20,11,51,20.50
2013,03,20,11,52,15.40
2013,03,20,11,53,4.80
2013,03,20,11,54,22.40
2013,03,20,11,55,23.70
2013,03,20,11,56,20.40
2013,03,20,11,57,13.80
2013,03,20,11,58,24.10
2013,03,20,11,59,24.90
2013,03,20,12,00,26.10
2013,03,20,12,01,22.50
2013,03,20,12,02,24.00
2013,03,20,12,03,21.50
2013,03,20,12,04,20.50
2013,03,20,12,05,21.20
2013,03,20,12,06,12.80
2013,03,20,12,07,11.80
2013,03,20,12,08,20.00
2013,03,20,12,09,21.80
2013,03,20,12,10,20.40
2013,03,20,12,11,24.80
2013,03,20,12,12,20.30
2013,03,20,12,13,16.10
2013,03,20,12,14,18.60
2013,03,20,12,15,16.40
2013,03,20,12,16,15.00
2013,03,20,12,17,19.10
2013,03,20,12,18,21.40
2013,03,20,12,19,20.80
2013,03,20,12,20,15.60
2013,03,20,12,21,19.00
2013,03,20,12,22,20.90
2013,03,20,12,23,17.30
2013,03,20,12,24,32.70
2013,03,20,12,25,30.10
2013,03,20,12,26,28.20
2013,03,20,12,27,17.70
2013,03,20,12,28,17.90
2013,03,20,12,29,21.50
2013,03,20,12,30,27.50
2013,03,20,12,31,19.60
2013,03,20,12,32,21.40
2013,03,20,12,33,24.10
2013,03,20,12,34,22.00
2013,03,20,12,35,21.10
2013,03,20,12,36,12.30
2013,03,20,12,37,15.30
2013,03,20,12,38,16.40
2013,03,20,12,39,14.50
2013,03,20,12,40,16.90
2013,03,20,12,41,25.90
2013,03,20,12,42,20.50
2013,03,20,12,43,15.90
2013,03,20,12,44,26.80
2013,03,20,12,45,11.10
2013,03,20,12,46,16.70
2013,03,20,12,47,22.10
2013,03,20,12,48,15.50
2013,03,20,12,49,16.90
2013,03,20,12,50,24.80
2013,03,20,12,51,25.10
2013,03,20,12,52,13.60
2013,03,20,12,53,24.00
2013,03,20,12,54,21.40
2013,03,20,12,55,23.70
2013,03,20,12,56,17.20
2013,03,20,12,57,14.30
2013,03,20,12,58,31.30
2013,03,20,12,59,26.70
2013,03,20,13,00,30.60
2013,03,20,13,01,19.70
2013,03,20,13,02,27.80
2013,03,20,13,03,17.10
2013,03,20,13,04,11.20
2013,03,20,13,05,20.20
2013,03,20,13,06,20.00
2013,03,20,13,07,27.10
2013,03,20,13,08,20.20
2013,03,20,13,09,23.90
2013,03,20,13,10,11.20
2013,03,20,13,11,20.40
2013,03,20,13,12,14.90
2013,03,20,13,13,18.70
2013,03,20,13,14,21.60
2013,03,20,13,15,21.90
2013,03,20,13,16,19.10
2013,03,20,13,17,26.80
2013,03,20,13,18,24.00
2013,03,20,13,19,25.30
2013,03,20,13,20,23.00
2013,03,20,13,21,22.10
2013,03,20,13,22,23.80
2013,03,20,13,23,24.20
2013,03,20,13,24,24.90
2013,03,20,13,25,18.20
2013,03,20,13,26,22.10
2013,03,20,13,27,23.00
2013,03,20,13,28,23.00
2013,03,20,13,29,16.50
2013,03,20,13,30,20.00
2013,03,20,13,31,21.70
2013,03,20,13,32,21.80
2013,03,20,13,33,21.00
2013,03,20,13,34,19.40
2013,03,20,13,35,18.00
2013,03,20,13,36,23.60
2013,03,20,13,37,21.10
2013,03,20,13,38,24.90
2013,03,20,13,39,20.30
2013,03,20,13,40,22.90
2013,03,20,13,41,23.50
2013,03,20,13,42,24.00
2013,03,20,13,43,22.70
2013,03,20,13,44,23.90
2013,03,20,13,45,28.20
2013,03,20,13,46,25.40
2013,03,20,13,47,28.20
2013,03,20,13,48,30.00
2013,03,20,13,49,24.90
2013,03,20,13,50,24.00
2013,03,20,13,51,31.80
2013,03,20,13,52,23.80
2013,03,20,13,53,20.60
2013,03,20,13,54,21.90
2013,03,20,13,55,29.00
2013,03,20,13,56,17.60
2013,03,20,13,57,15.40
2013,03,20,13,58,12.50
2013,03,20,13,59,26.10
2013,03,20,14,00,25.60
2013,03,20,14,01,19.50
2013,03,20,14,02,32.40
2013,03,20,14,03,22.40
2013,03,20,14,04,21.80
2013,03,20,14,05,27.80
2013,03,20,14,06,13.90
2013,03,20,14,07,17.70
2013,03,20,14,08,24.90
2013,03,20,14,09,21.30
2013,03,20,14,10,24.50
2013,03,20,14,11,20.80
2013,03,20,14,12,27.60
2013,03,20,14,13,24.10
2013,03,20,14,14,30.40
2013,03,20,14,15,20.70
2013,03,20,14,16,24.70
2013,03,20,14,17,29.30
2013,03,20,14,18,41.70
2013,03,20,14,19,25.60
2013,03,20,14,20,34.80
2013,03,20,14,21,24.40
2013,03,20,14,22,32.40
2013,03,20,14,23,23.80
2013,03,20,14,24,21.50
2013,03,20,14,25,22.90
2013,03,20,14,26,31.10
2013,03,20,14,27,31.30
2013,03,20,14,28,37.30
2013,03,20,14,29,20.80
2013,03,20,14,30,25.70
2013,03,20,14,31,29.60
2013,03,20,14,32,11.30
2013,03,20,14,33,16.40
2013,03,20,14,34,29.30
2013,03,20,14,35,30.60
2013,03,20,14,36,27.20
2013,03,20,14,37,24.70
2013,03,20,14,38,23.90
2013,03,20,14,39,20.90
2013,03,20,14,40,29.70
2013,03,20,14,41,17.10
2013,03,20,14,42,18.60
2013,03,20,14,43,16.40
2013,03,20,14,44,12.50
2013,03,20,14,45,18.50
2013,03,20,14,46,20.70
2013,03,20,14,47,15.40
2013,03,20,14,48,12.00
2013,03,20,14,49,18.40
2013,03,20,14,50,26.20
2013,03,20,14,51,14.80
2013,03,20,14,52,31.50
2013,03,20,14,53,30.20
2013,03,20,14,54,16.20
2013,03,20,14,55,19.00
2013,03,20,14,56,15.90
2013,03,20,14,57,27.10
2013,03,20,14,58,25.80
2013,03,20,14,59,18.40
2013,03,20,15,00,18.20
2013,03,20,15,01,27.30
2013,03,20,15,02,23.20
2013,03,20,15,03,29.30
2013,03,20,15,04,25.50
2013,03,20,15,05,24.70
2013,03,20,15,06,22.60
2013,03,20,15,07,22.60
2013,03,20,15,08,25.00
2013,03,20,15,09,28.20
2013,03,20,15,10,19.50
2013,03,20,15,11,24.00
2013,03,20,15,12,25.00
2013,03,20,15,13,15.20
2013,03,20,15,14,11.90
2013,03,20,15,15,19.90
2013,03,20,15,16,15.70
2013,03,20,15,17,24.60
2013,03,20,15,18,22.00
2013,03,20,15,19,31.90
2013,03,20,15,20,26.30
2013,03,20,15,21,27.30
2013,03,20,15,22,24.60
2013,03,20,15,23,20.30
2013,03,20,15,24,26.60
2013,03,20,15,25,16.50
2013,03,20,15,26,23.10
2013,03,20,15,27,23.60
2013,03,20,15,28,14.70
2013,03,20,15,29,26.00
2013,03,20,15,30,24.30
2013,03,20,15,31,33.80
2013,03,20,15,32,24.20
2013,03,20,15,33,20.80
2013,03,20,15,34,31.20
2013,03,20,15,35,31.80
2013,03,20,15,36,35.10
2013,03,20,15,37,24.10
2013,03,20,15,38,19.00
2013,03,20,15,39,27.40
2013,03,20,15,40,29.60
2013,03,20,15,41,28.70
2013,03,20,15,42,32.00
2013,03,20,15,43,26.10
2013,03,20,15,44,30.70
2013,03,20,15,45,19.30
2013,03,20,15,46,35.70
2013,03,20,15,47,30.10
2013,03,20,15,48,25.90
2013,03,20,15,49,28.70
2013,03,20,15,50,26.40
2013,03,20,15,51,37.30
2013,03,20,15,52,35.70
2013,03,20,15,53,30.60
2013,03,20,15,54,35.90
2013,03,20,15,55,27.90
2013,03,20,15,56,42.70
2013,03,20,15,57,38.20
2013,03,20,15,58,39.50
2013,03,20,15,59,26.60
2013,03,20,16,00,33.50
2013,03,20,16,01,26.50
2013,03,20,16,02,25.90
2013,03,20,16,03,25.60
2013,03,20,16,04,25.40
2013,03,20,16,05,26.40
2013,03,20,16,06,33.40
2013,03,20,16,07,36.90
2013,03,20,16,08,38.10
2013,03,20,16,09,27.40
2013,03,20,16,10,25.80
2013,03,20,16,11,20.60
2013,03,20,16,12,26.60
2013,03,20,16,13,29.60
2013,03,20,16,14,34.40
2013,03,20,16,15,31.70
2013,03,20,16,16,40.90
2013,03,20,16,17,31.70
2013,03,20,16,18,20.20
2013,03,20,16,19,31.70
2013,03,20,16,20,23.80
2013,03,20,16,21,26.00
2013,03,20,16,22,36.20
2013,03,20,16,23,35.90
2013,03,20,16,24,27.80
2013,03,20,16,25,32.40
2013,03,20,16,26,35.30
2013,03,20,16,27,38.90
2013,03,20,16,28,25.00
2013,03,20,16,29,23.80
2013,03,20,16,30,26.50
2013,03,20,16,31,33.40
2013,03,20,16,32,31.60
2013,03,20,16,33,34.20
2013,03,20,16,34,26.00
2013,03,20,16,35,28.30
2013,03,20,16,36,33.50
2013,03,20,16,37,29.50
2013,03,20,16,38,31.10
2013,03,20,16,39,43.10
2013,03,20,16,40,38.90
2013,03,20,16,41,34.10
2013,03,20,16,42,32.60
2013,03,20,16,43,41.20
2013,03,20,16,44,35.00
2013,03,20,16,45,29.10
2013,03,20,16,46,43.40
2013,03,20,16,47,44.70
2013,03,20,16,48,33.90
2013,03,20,16,49,43.00
2013,03,20,16,50,31.40
2013,03,20,16,51,30.40
2013,03,20,16,52,39.40
2013,03,20,16,53,23.70
2013,03,20,16,54,29.70
2013,03,20,16,55,37.00
2013,03,20,16,56,37.70
2013,03,20,16,57,32.30
2013,03,20,16,58,37.30
2013,03,20,16,59,34.10
2013,03,20,17,00,26.00
2013,03,20,17,01,25.10
2013,03,20,17,02,27.10
2013,03,20,17,03,28.60
2013,03,20,17,04,35.00
2013,03,20,17,05,29.10
2013,03,20,17,06,26.60
2013,03,20,17,07,30.80
2013,03,20,17,08,37.50
2013,03,20,17,09,29.80
2013,03,20,17,10,28.40
2013,03,20,17,11,25.80
2013,03,20,17,12,41.30
2013,03,20,17,13,48.10
2013,03,20,17,14,40.90
2013,03,20,17,15,30.40
2013,03,20,17,16,40.80
2013,03,20,17,17,30.60
2013,03,20,17,18,27.00
2013,03,20,17,19,31.00
2013,03,20,17,20,33.40
2013,03,20,17,21,44.00
2013,03,20,17,22,38.40
2013,03,20,17,23,33.60
2013,03,20,17,24,35.40
2013,03,20,17,25,34.80
2013,03,20,17,26,31.30
2013,03,20,17,27,31.00
2013,03,20,17,28,23.00